[[{"header":{"parameterUnit":"m.s-1","parameterCategory":2,"la1":30.2991,"la2":30.254,"lo1":-89.0895,"lo2":-89.0444,"dy":0.0017,"dx":0.0017,"nx":28,"ny":28,"refTime":"2026-01-03T09:00:00:Z","depth":"0","parameterNumber":2,"parameterNumberName":"U-component_of_CURRENTS"},"data":[0,0,0,0,0,0,0,0,0,0,0,0,0,0,0,0,0,0,0,0,0,0,0,0,0,0,0,0,0,0,0,0,0,0,0,0,0,0,0,0,0,0,0,0,0,0,0,0,0,0,0,0,0,0,0,0,0,0,-0.3095,-0.3095,0,-0.3133,-0.3133,-0.3134,-0.3112,-0.3111,-0.311,-0.3109,-0.3119,-0.312,-0.3121,0,0,0,0,0,0,0,0,0,0,0,0,0,-0.3017,-0.3018,-0.3095,-0.3095,-0.3096,-0.3133,-0.3133,-0.3134,-0.3112,-0.3111,-0.311,-0.3109,-0.3119,-0.312,-0.3121,0,0,0,0,0,0,0,0,0,0,0,0,0,-0.305,-0.3018,-0.3095,-0.3091,-0.3092,-0.3133,-0.3133,-0.3134,-0.3112,-0.3111,-0.3109,-0.3108,-0.3118,-0.312,-0.3121,-0.3157,0,0,-0.3126,-0.3127,0,0,0,0,0,0,0,0,-0.3048,-0.3053,-0.3091,-0.3092,-0.3092,-0.3118,-0.311,-0.3141,-0.3112,-0.3102,-0.3109,-0.3108,-0.3119,-0.312,-0.3127,-0.3158,-0.3158,-0.3126,-0.3127,-0.3128,-0.3129,0,0,0,0,0,0,0,-0.3046,-0.3051,-0.3107,-0.3092,-0.3093,-0.3093,-0.3096,-0.3116,-0.3115,-0.3102,-0.3102,-0.311,-0.3118,-0.3126,-0.3127,-0.3158,-0.3126,-0.3128,-0.3129,-0.3129,-0.3208,-0.3209,0,0,0,0,0,0,-0.3047,-0.3049,-0.3106,-0.3109,-0.3069,-0.3096,-0.3099,-0.3109,-0.3115,-0.3116,-0.3111,-0.3109,-0.3124,-0.3125,-0.3128,-0.3145,-0.3128,-0.313,-0.3131,-0.3207,-0.3208,-0.3209,0,0,0,0,0,0,-0.3045,-0.3052,-0.3105,-0.3081,-0.3088,-0.3099,-0.311,-0.3111,-0.3112,-0.3122,-0.3121,-0.3112,-0.3123,-0.3125,-0.3142,-0.3146,-0.313,-0.3132,-0.3205,-0.3207,-0.3209,-0.3196,0,0,0,0,0,0,-0.3043,-0.3051,-0.3051,-0.3082,-0.309,-0.3126,-0.3112,-0.3112,-0.3121,-0.3118,-0.3123,-0.3123,-0.3122,-0.314,-0.3144,-0.3148,-0.3133,-0.3204,-0.3206,-0.3208,-0.3195,-0.3197,-0.3199,0,0,0,0,0,-0.304,-0.3045,-0.3051,-0.3058,-0.3093,-0.3127,-0.3131,-0.3132,-0.3122,-0.3127,-0.313,-0.3122,-0.3156,-0.3142,-0.3146,-0.3151,-0.3203,-0.3206,-0.3208,-0.3194,-0.3197,-0.3199,0,0,0,0,0,0,-0.3003,-0.3045,-0.3052,-0.3067,-0.3095,-0.3124,-0.3126,-0.3134,-0.3142,-0.3135,-0.3137,-0.3138,-0.3157,-0.3163,-0.3148,-0.3183,-0.3179,-0.3182,-0.3167,-0.3169,-0.3171,-0.3159,-0.3134,0,0,0,0,0,-0.3,-0.3014,-0.3057,-0.3065,-0.3081,-0.3105,-0.3116,-0.3125,-0.3141,-0.3142,-0.3149,-0.3159,-0.3175,-0.3177,-0.3196,-0.3214,-0.3195,-0.3222,-0.3224,-0.3225,-0.3221,-0.3208,-0.3207,-0.3218,-0.3218,-0.3218,0,0,-0.2984,-0.301,-0.3015,-0.3058,-0.3076,-0.3104,-0.3107,-0.3129,-0.3144,-0.3144,-0.3157,-0.3169,-0.3185,-0.3203,-0.3211,-0.3203,-0.321,-0.3228,-0.3229,-0.3224,-0.321,-0.3209,-0.3208,-0.3219,-0.3219,-0.3219,0,0,-0.2968,-0.2988,-0.3,-0.3031,-0.3071,-0.3094,-0.3103,-0.314,-0.3145,-0.3172,-0.3174,-0.3183,-0.3213,-0.3215,-0.3223,-0.325,-0.3226,-0.3264,-0.3253,-0.3241,-0.3239,-0.3237,-0.3189,-0.3183,-0.3257,-0.3257,-0.3257,0,-0.2945,-0.2972,-0.3007,-0.3035,-0.3055,-0.3091,-0.3113,-0.3136,-0.317,-0.3175,-0.3173,-0.3209,-0.3216,-0.3231,-0.3237,-0.325,-0.3231,-0.3237,-0.324,-0.3238,-0.3236,-0.3188,-0.3181,-0.3256,-0.3256,-0.3256,-0.3256,0,-0.2949,-0.2972,-0.2982,-0.303,-0.3059,-0.3082,-0.313,-0.3151,-0.3164,-0.3182,-0.3203,-0.3216,-0.3229,-0.3239,-0.3243,-0.3244,-0.3228,-0.3245,-0.3224,-0.3233,-0.3183,-0.3176,-0.3256,-0.3256,-0.3256,-0.3256,0,0,-0.2887,-0.2969,-0.2969,-0.2991,-0.3058,-0.3079,-0.3117,-0.3155,-0.3165,-0.3195,-0.3196,-0.3226,-0.3227,-0.3236,-0.3244,-0.3232,-0.3193,-0.3231,-0.323,-0.3165,-0.3137,-0.3049,-0.3033,-0.321,-0.321,-0.3209,-0.3096,0,-0.2872,-0.2915,-0.2965,-0.2997,-0.3022,-0.3077,-0.3108,-0.3147,-0.3172,-0.3186,-0.32,-0.3212,-0.3229,-0.3227,-0.3221,-0.3212,-0.318,-0.322,-0.3154,-0.3151,-0.3058,-0.3025,-0.2922,-0.2807,-0.309,-0.3089,-0.3088,0,-0.2851,-0.2886,-0.2916,-0.2981,-0.2997,-0.3021,-0.3065,-0.3102,-0.3143,-0.3162,-0.3179,-0.3195,-0.3191,-0.3201,-0.3168,-0.3194,-0.3159,-0.3143,-0.3139,-0.3057,-0.3051,-0.2851,-0.2784,-0.2765,-0.3078,-0.3078,-0.3079,0,-0.2772,-0.2844,-0.286,-0.2884,-0.2969,-0.2982,-0.3021,-0.3077,-0.3105,-0.3136,-0.3151,-0.316,-0.3161,-0.3136,-0.3113,-0.3137,-0.3059,-0.3086,-0.2965,-0.2958,-0.2856,-0.284,-0.2747,-0.304,-0.304,-0.304,-0.3041,0,-0.2729,-0.2739,-0.2821,-0.2829,-0.2847,-0.2924,-0.2943,-0.299,-0.3046,-0.3068,-0.3123,-0.3133,-0.3149,-0.3121,-0.3089,-0.2993,-0.3034,-0.2941,-0.2921,-0.2847,-0.2832,-0.2801,-0.2836,-0.3036,-0.3037,-0.3038,-0.3038,0,-0.2633,-0.269,-0.2713,-0.2789,-0.2809,-0.2816,-0.2899,-0.2916,-0.2989,-0.3016,-0.3026,-0.3097,-0.3062,-0.3047,-0.2995,-0.2949,-0.2816,-0.2827,-0.2719,-0.2688,-0.2553,-0.2591,-0.2476,-0.2403,-0.2662,-0.2659,-0.2657,0,-0.2585,-0.2586,-0.2657,-0.2667,-0.2695,-0.273,-0.2756,-0.2857,-0.2888,-0.2988,-0.2988,-0.2995,-0.297,-0.286,-0.2776,-0.2659,-0.269,-0.2509,-0.2537,-0.2503,-0.2533,-0.2569,-0.252,-0.2387,-0.2383,-0.2379,-0.2376,0,-0.2487,-0.2512,-0.2532,-0.2555,-0.2577,-0.2613,-0.2661,-0.2686,-0.2803,-0.2835,-0.2866,-0.2853,-0.278,-0.2637,-0.2511,-0.2437,-0.2447,-0.2429,-0.2431,-0.2327,-0.2324,-0.2257,-0.2494,-0.2344,-0.2347,-0.2349,-0.2351,-0.2352,-0.2396,-0.2388,-0.2416,-0.2423,-0.2453,-0.2468,-0.245,-0.2525,-0.2553,-0.258,-0.2672,-0.2625,-0.2552,-0.2359,-0.227,-0.2109,-0.2191,-0.2068,-0.2118,-0.2157,-0.2085,-0.2227,-0.2043,-0.2045,-0.2046,-0.2047,-0.2048,0,-0.2273,-0.2276,-0.2283,-0.2289,-0.2262,-0.2325,-0.2358,-0.2318,-0.2297,-0.237,-0.2362,-0.2333,-0.2174,-0.2114,-0.1956,-0.1848,-0.1808,-0.1813,-0.1857,-0.182,-0.1958,-0.1945,-0.1687,-0.1687,-0.1687,-0.1687,-0.1687,-0.1687,-0.2206,-0.2163,-0.2169,-0.2084,-0.2084,-0.1999,-0.1982,-0.1951,-0.1967,-0.1937,-0.1966,-0.2039,-0.1999,-0.2054,-0.1871,-0.1759,-0.1724,-0.1663,-0.1692,-0.1829,-0.1859,-0.1887,-0.188,-0.1613,-0.1613,-0.1486,-0.1485,-0.1485]},{"header":{"parameterUnit":"m.s-1","parameterCategory":2,"la1":30.2991,"la2":30.254,"lo1":-89.0895,"lo2":-89.0444,"dy":0.0017,"dx":0.0017,"nx":28,"ny":28,"refTime":"2026-01-03T09:00:00:Z","depth":"0","parameterNumber":3,"parameterNumberName":"V-component_of_CURRENTS"},"data":[0,0,0,0,0,0,0,0,0,0,0,0,0,0,0,0,0,0,0,0,0,0,0,0,0,0,0,0,0,0,0,0,0,0,0,0,0,0,0,0,0,0,0,0,0,0,0,0,0,0,0,0,0,0,0,0,0,0,-0.0505,-0.0504,0,-0.0401,-0.0399,-0.0398,-0.0324,-0.0323,-0.0323,-0.0323,-0.0144,-0.014,-0.0136,0,0,0,0,0,0,0,0,0,0,0,0,0,-0.0582,-0.0581,-0.0505,-0.0504,-0.0503,-0.0401,-0.0399,-0.0398,-0.0324,-0.0323,-0.0323,-0.0322,-0.0146,-0.0141,-0.0135,0,0,0,0,0,0,0,0,0,0,0,0,0,-0.0519,-0.0581,-0.0505,-0.0455,-0.045,-0.0401,-0.0399,-0.0397,-0.0324,-0.0323,-0.0323,-0.0322,-0.0148,-0.0141,-0.0135,-0.0106,0,0,-0.0115,-0.0112,0,0,0,0,0,0,0,0,-0.0522,-0.0516,-0.0464,-0.0459,-0.0453,-0.0376,-0.0361,-0.0297,-0.0324,-0.037,-0.0323,-0.0322,-0.0217,-0.0205,-0.0184,-0.0098,-0.009,-0.0114,-0.011,-0.0107,-0.0106,0,0,0,0,0,0,0,-0.0527,-0.0519,-0.0461,-0.0463,-0.0456,-0.0418,-0.0409,-0.0348,-0.0295,-0.0366,-0.036,-0.0352,-0.0213,-0.0191,-0.018,-0.0088,-0.0114,-0.0109,-0.0104,-0.0102,0.0047,0.0047,0,0,0,0,0,0,-0.0548,-0.0524,-0.0465,-0.0459,-0.0489,-0.0418,-0.0407,-0.04,-0.0297,-0.0282,-0.0353,-0.0349,-0.0203,-0.0187,-0.0173,-0.0136,-0.0107,-0.0101,-0.0098,0.0047,0.0047,0.0047,0,0,0,0,0,0,-0.055,-0.0543,-0.0469,-0.049,-0.0479,-0.0418,-0.041,-0.0398,-0.0376,-0.0289,-0.0272,-0.0344,-0.0201,-0.0182,-0.0126,-0.0128,-0.0098,-0.0092,0.0047,0.0047,0.0047,-0.0059,0,0,0,0,0,0,-0.0552,-0.0545,-0.0548,-0.0492,-0.0478,-0.0451,-0.041,-0.0397,-0.0373,-0.0367,-0.0275,-0.0258,-0.02,-0.0136,-0.0119,-0.0118,-0.0087,0.0047,0.0047,0.0047,-0.0056,-0.0063,-0.0069,0,0,0,0,0,-0.0555,-0.0566,-0.0549,-0.0542,-0.0484,-0.0452,-0.0442,-0.0394,-0.0374,-0.0371,-0.0308,-0.0261,-0.0123,-0.0131,-0.0111,-0.0109,0.0047,0.0047,0.0047,-0.0053,-0.0061,-0.0069,0,0,0,0,0,0,-0.06,-0.0558,-0.0538,-0.0535,-0.0501,-0.0441,-0.0435,-0.0403,-0.0352,-0.0344,-0.0261,-0.0239,-0.0192,-0.0135,-0.0145,-0.0064,-0.003,-0.0026,-0.0112,-0.012,-0.0126,-0.0147,-0.0082,0,0,0,0,0,-0.0613,-0.061,-0.0563,-0.056,-0.0549,-0.0493,-0.0475,-0.0445,-0.0393,-0.037,-0.0306,-0.0236,-0.0176,-0.0138,-0.0079,-0.0033,0.003,-0.0017,-0.0024,-0.003,-0.0033,0.0056,0.0057,0.0047,0.0047,0.0047,0,0,-0.0629,-0.0606,-0.0603,-0.057,-0.0539,-0.0532,-0.048,-0.0461,-0.0449,-0.0358,-0.0322,-0.0259,-0.0171,-0.0125,-0.0097,-0.0076,0.0005,-0.003,-0.0036,-0.0035,0.0056,0.0057,0.0058,0.0047,0.0047,0.0047,0,0,-0.0666,-0.064,-0.0653,-0.0633,-0.06,-0.0564,-0.0565,-0.0511,-0.048,-0.0441,-0.0373,-0.0315,-0.0225,-0.0162,-0.0117,-0.0121,-0.0038,-0.0102,-0.0143,-0.0058,-0.0057,-0.0055,0.0018,0.0028,-0.0099,-0.0099,-0.0099,0,-0.0687,-0.0695,-0.0652,-0.0661,-0.065,-0.0587,-0.0598,-0.0559,-0.0493,-0.0463,-0.0444,-0.0308,-0.0241,-0.0168,-0.0175,-0.0137,-0.0078,-0.0126,-0.0068,-0.0065,-0.0061,0.0014,0.0026,-0.0104,-0.0104,-0.0103,-0.0103,0,-0.0734,-0.074,-0.0747,-0.0736,-0.0718,-0.0717,-0.0664,-0.0639,-0.0595,-0.0543,-0.0471,-0.0382,-0.0297,-0.027,-0.0225,-0.0163,-0.0129,-0.0095,-0.0055,-0.0066,0.0014,0.0028,-0.0111,-0.011,-0.0108,-0.0107,0,0,-0.0776,-0.0782,-0.0782,-0.0792,-0.0758,-0.0747,-0.0729,-0.0682,-0.0656,-0.0588,-0.0542,-0.0449,-0.0392,-0.0339,-0.0268,-0.0198,-0.013,-0.0147,-0.014,-0.0086,0.0053,0.0096,0.0116,-0.0086,-0.0084,-0.0083,0.0094,0,-0.0824,-0.087,-0.0848,-0.0874,-0.089,-0.0832,-0.0817,-0.0763,-0.0699,-0.0638,-0.0534,-0.0464,-0.0418,-0.0377,-0.0305,-0.0172,-0.0096,-0.0181,0.0068,0.0075,0.0106,0.0133,0.0172,0.0335,0.0109,0.0111,0.0113,0,-0.0874,-0.0897,-0.0945,-0.0945,-0.0943,-0.0945,-0.0897,-0.0872,-0.0769,-0.0716,-0.0628,-0.0536,-0.0427,-0.0387,-0.0174,-0.0232,-0.0104,-0.0001,0.0009,0.0097,0.0145,0.0315,0.037,0.0539,0.0136,0.0134,0.0132,0,-0.0928,-0.0957,-0.0999,-0.1002,-0.0993,-0.0993,-0.0976,-0.0896,-0.0864,-0.0756,-0.0712,-0.057,-0.0483,-0.0324,-0.0123,-0.0141,0.0121,0.0132,0.0295,0.0299,0.0407,0.0417,0.0647,0.0292,0.0291,0.0291,0.029,0,-0.0986,-0.1015,-0.1032,-0.1055,-0.1089,-0.1054,-0.1053,-0.1009,-0.0931,-0.0883,-0.0758,-0.0678,-0.0461,-0.0285,-0.0122,0.0132,0.0132,0.0298,0.0355,0.037,0.0375,0.0586,0.0643,0.0298,0.0296,0.0295,0.0294,0,-0.1038,-0.1053,-0.1101,-0.1116,-0.1121,-0.1143,-0.1122,-0.111,-0.103,-0.0963,-0.0929,-0.0735,-0.0503,-0.0276,0.0015,0.0151,0.0497,0.0473,0.0466,0.0518,0.0794,0.0842,0.1133,0.1238,0.067,0.0673,0.0674,0,-0.1069,-0.1105,-0.1154,-0.1188,-0.12,-0.1221,-0.1231,-0.1171,-0.1145,-0.0989,-0.0956,-0.0717,-0.0531,-0.0102,0.0191,0.0505,0.0635,0.0718,0.0689,0.083,0.0927,0.0959,0.1028,0.0794,0.0797,0.0799,0.0801,0,-0.1119,-0.114,-0.1181,-0.126,-0.1295,-0.1322,-0.1324,-0.1321,-0.1225,-0.1141,-0.0974,-0.0807,-0.0379,0.0004,0.0409,0.0597,0.0841,0.0772,0.0944,0.1064,0.1095,0.1215,0.0642,0.082,0.0818,0.0817,0.0816,0.0815,-0.1143,-0.1192,-0.1253,-0.1322,-0.1368,-0.1405,-0.1416,-0.1387,-0.133,-0.1173,-0.0999,-0.0709,-0.0161,0.0421,0.0635,0.1084,0.1039,0.1212,0.1265,0.1291,0.1375,0.0829,0.1048,0.1047,0.1047,0.1046,0.1046,0,-0.1163,-0.1227,-0.1306,-0.1385,-0.1441,-0.1447,-0.1458,-0.1429,-0.1357,-0.1163,-0.096,-0.0343,0.0193,0.0686,0.131,0.1556,0.1611,0.168,0.1748,0.18,0.1358,0.1344,0.1608,0.1608,0.1608,0.1607,0.1607,0.1607,-0.1176,-0.1259,-0.131,-0.1417,-0.1471,-0.1504,-0.1505,-0.1437,-0.1299,-0.0959,-0.0609,-0.032,0.0399,0.1379,0.1949,0.2009,0.2214,0.2206,0.2313,0.2006,0.1965,0.1927,0.1931,0.2313,0.2314,0.2746,0.275,0.2753]}],[{"header":{"parameterUnit":"m.s-1","parameterCategory":2,"la1":30.2991,"la2":30.254,"lo1":-89.0895,"lo2":-89.0444,"dy":0.0017,"dx":0.0017,"nx":28,"ny":28,"refTime":"2026-01-03T09:00:00:Z","depth":"2","parameterNumber":2,"parameterNumberName":"U-component_of_CURRENTS"},"data":[0,0,0,0,0,0,0,0,0,0,0,0,0,0,0,0,0,0,0,0,0,0,0,0,0,0,0,0,0,0,0,0,0,0,0,0,0,0,0,0,0,0,0,0,0,0,0,0,0,0,0,0,0,0,0,0,0,0,-0.2675,-0.2676,0,-0.2717,-0.2717,-0.2717,-0.2707,-0.2707,-0.2706,-0.2706,-0.269,-0.2691,-0.2691,0,0,0,0,0,0,0,0,0,0,0,0,0,-0.2599,-0.26,-0.2675,-0.2676,-0.2676,-0.2717,-0.2717,-0.2717,-0.2707,-0.2707,-0.2706,-0.2705,-0.269,-0.2691,-0.2691,0,0,0,0,0,0,0,0,0,0,0,0,0,-0.2633,-0.26,-0.2675,-0.2678,-0.2679,-0.2716,-0.2717,-0.2717,-0.2708,-0.2707,-0.2706,-0.2705,-0.269,-0.269,-0.2691,-0.271,0,0,-0.2691,-0.2692,0,0,0,0,0,0,0,0,-0.2631,-0.2636,-0.2677,-0.2678,-0.2679,-0.2708,-0.2685,-0.2713,-0.2708,-0.2694,-0.2706,-0.2705,-0.2693,-0.2693,-0.27,-0.2709,-0.2709,-0.2691,-0.2692,-0.2692,-0.2692,0,0,0,0,0,0,0,-0.2629,-0.2634,-0.2689,-0.2678,-0.2679,-0.2682,-0.2685,-0.269,-0.2695,-0.2695,-0.2695,-0.2704,-0.2693,-0.27,-0.27,-0.2709,-0.2691,-0.2692,-0.2692,-0.2692,-0.2733,-0.2734,0,0,0,0,0,0,-0.2629,-0.2632,-0.2688,-0.2691,-0.2655,-0.2684,-0.2688,-0.2698,-0.2697,-0.2697,-0.2705,-0.2703,-0.27,-0.27,-0.2699,-0.2719,-0.2692,-0.2692,-0.2692,-0.2732,-0.2733,-0.2734,0,0,0,0,0,0,-0.2627,-0.2633,-0.2686,-0.2664,-0.2671,-0.2686,-0.2697,-0.2699,-0.2707,-0.2705,-0.2703,-0.2711,-0.27,-0.2699,-0.271,-0.2718,-0.2692,-0.2692,-0.2731,-0.2733,-0.2734,-0.276,0,0,0,0,0,0,-0.2625,-0.2633,-0.2636,-0.2664,-0.2672,-0.271,-0.2699,-0.27,-0.2715,-0.2713,-0.271,-0.2707,-0.2699,-0.271,-0.271,-0.2718,-0.2692,-0.273,-0.2732,-0.2734,-0.2758,-0.2762,-0.2766,0,0,0,0,0,-0.2622,-0.2629,-0.2636,-0.2642,-0.2677,-0.2711,-0.2715,-0.2721,-0.2716,-0.2723,-0.2724,-0.2707,-0.2721,-0.2711,-0.2711,-0.2719,-0.2729,-0.2731,-0.2733,-0.2756,-0.2761,-0.2766,0,0,0,0,0,0,-0.2592,-0.263,-0.2637,-0.2654,-0.2682,-0.271,-0.2715,-0.2726,-0.2734,-0.2729,-0.2722,-0.2721,-0.2735,-0.2728,-0.2717,-0.2738,-0.2722,-0.2724,-0.2739,-0.2744,-0.2748,-0.2738,-0.2693,0,0,0,0,0,-0.259,-0.2604,-0.2644,-0.2654,-0.2671,-0.2695,-0.2708,-0.2719,-0.2734,-0.2736,-0.2738,-0.2739,-0.2747,-0.2744,-0.2751,-0.2762,-0.2739,-0.2768,-0.2772,-0.2775,-0.2769,-0.2758,-0.2759,-0.2742,-0.2742,-0.2742,0,0,-0.2578,-0.2602,-0.2608,-0.2649,-0.2667,-0.2696,-0.27,-0.2724,-0.2743,-0.2734,-0.2751,-0.2757,-0.2755,-0.277,-0.2774,-0.2761,-0.2767,-0.2778,-0.2781,-0.2773,-0.276,-0.2762,-0.2763,-0.2743,-0.2743,-0.2743,0,0,-0.2568,-0.2588,-0.2601,-0.263,-0.267,-0.2692,-0.2703,-0.2741,-0.275,-0.2777,-0.2774,-0.2784,-0.2797,-0.2796,-0.2797,-0.2827,-0.2793,-0.2832,-0.2836,-0.2825,-0.2826,-0.2827,-0.2787,-0.2784,-0.2827,-0.2827,-0.2827,0,-0.2552,-0.2577,-0.2608,-0.2636,-0.2657,-0.2693,-0.2716,-0.274,-0.2775,-0.2783,-0.2783,-0.2809,-0.2808,-0.282,-0.283,-0.2834,-0.2813,-0.2816,-0.2829,-0.2829,-0.2829,-0.2788,-0.2784,-0.2828,-0.2828,-0.2828,-0.2828,0,-0.2558,-0.2582,-0.2593,-0.2639,-0.2668,-0.2693,-0.2739,-0.2765,-0.2783,-0.2802,-0.2827,-0.2835,-0.2843,-0.2851,-0.2848,-0.2854,-0.2833,-0.2839,-0.2812,-0.2832,-0.2788,-0.2783,-0.283,-0.283,-0.2829,-0.2829,0,0,-0.251,-0.2583,-0.2585,-0.2607,-0.2672,-0.2694,-0.2735,-0.2776,-0.2792,-0.2826,-0.2837,-0.2863,-0.2866,-0.2867,-0.287,-0.2861,-0.2842,-0.2849,-0.2847,-0.28,-0.2794,-0.271,-0.2697,-0.2851,-0.2851,-0.285,-0.2758,0,-0.2502,-0.2543,-0.2588,-0.2624,-0.2649,-0.2703,-0.2736,-0.2778,-0.2808,-0.283,-0.2846,-0.2861,-0.2873,-0.2874,-0.2872,-0.2856,-0.2833,-0.2864,-0.279,-0.2786,-0.2703,-0.269,-0.2512,-0.2409,-0.2753,-0.2752,-0.2752,0,-0.2489,-0.252,-0.2553,-0.2617,-0.2633,-0.266,-0.2711,-0.275,-0.2797,-0.2819,-0.2843,-0.2859,-0.2862,-0.2866,-0.2839,-0.2858,-0.2824,-0.2805,-0.2802,-0.2709,-0.2694,-0.2449,-0.2388,-0.2744,-0.2744,-0.2745,-0.2746,0,-0.2423,-0.2492,-0.2511,-0.2535,-0.2615,-0.2634,-0.2674,-0.2733,-0.2763,-0.2804,-0.2823,-0.2839,-0.2843,-0.2821,-0.2797,-0.2813,-0.2747,-0.2764,-0.2651,-0.2644,-0.2468,-0.2446,-0.2726,-0.2727,-0.2727,-0.2727,-0.2727,0,-0.239,-0.2404,-0.248,-0.2489,-0.2514,-0.2586,-0.2614,-0.2662,-0.2721,-0.2742,-0.2804,-0.2815,-0.2834,-0.2812,-0.278,-0.2691,-0.2731,-0.2635,-0.2613,-0.2471,-0.2452,-0.2731,-0.2733,-0.2724,-0.2724,-0.2725,-0.2726,0,-0.2307,-0.2361,-0.2386,-0.2461,-0.2482,-0.2494,-0.2577,-0.2595,-0.2672,-0.2699,-0.2711,-0.2783,-0.2754,-0.2748,-0.27,-0.2656,-0.2586,-0.2542,-0.2361,-0.232,-0.249,-0.2494,-0.2397,-0.2393,-0.239,-0.2388,-0.2385,0,-0.2267,-0.2271,-0.234,-0.235,-0.2379,-0.2419,-0.2443,-0.2543,-0.2569,-0.2668,-0.2664,-0.2682,-0.2653,-0.2562,-0.2484,-0.2382,-0.2483,-0.2168,-0.2173,-0.2466,-0.2456,-0.2465,-0.2474,-0.1942,-0.1936,-0.1932,-0.1928,0,-0.2183,-0.2207,-0.2227,-0.2249,-0.2271,-0.2305,-0.235,-0.2368,-0.2477,-0.2508,-0.2531,-0.2518,-0.2458,-0.2285,-0.2181,-0.2107,-0.2174,-0.207,-0.2406,-0.2066,-0.2033,-0.2025,-0.2049,-0.1887,-0.1891,-0.1894,-0.1896,-0.1898,-0.2106,-0.2097,-0.2121,-0.2127,-0.2155,-0.2161,-0.2138,-0.2199,-0.2217,-0.2223,-0.2317,-0.2236,-0.2209,-0.1956,-0.1837,-0.1749,-0.1902,-0.1821,-0.1837,-0.1857,-0.1834,-0.1799,-0.1602,-0.1604,-0.1606,-0.1608,-0.161,0,-0.1997,-0.1995,-0.1998,-0.1999,-0.1968,-0.2031,-0.2046,-0.1992,-0.1951,-0.1986,-0.197,-0.1768,-0.1645,-0.1623,-0.1422,-0.1372,-0.1371,-0.1315,-0.1324,-0.1365,-0.1402,-0.1358,-0.0998,-0.0996,-0.0994,-0.0992,0,0,-0.1939,-0.1894,-0.1891,-0.18,-0.1796,-0.1707,-0.168,-0.1625,-0.1608,-0.152,-0.1478,-0.1577,-0.1592,-0.1312,-0.1229,-0.1085,-0.1215,-0.1025,-0.1517,-0.157,-0.1605,-0.1692,-0.167,0,0,0,0,0]},{"header":{"parameterUnit":"m.s-1","parameterCategory":2,"la1":30.2991,"la2":30.254,"lo1":-89.0895,"lo2":-89.0444,"dy":0.0017,"dx":0.0017,"nx":28,"ny":28,"refTime":"2026-01-03T09:00:00:Z","depth":"2","parameterNumber":3,"parameterNumberName":"V-component_of_CURRENTS"},"data":[0,0,0,0,0,0,0,0,0,0,0,0,0,0,0,0,0,0,0,0,0,0,0,0,0,0,0,0,0,0,0,0,0,0,0,0,0,0,0,0,0,0,0,0,0,0,0,0,0,0,0,0,0,0,0,0,0,0,-0.0384,-0.0383,0,-0.0295,-0.0294,-0.0293,-0.023,-0.023,-0.023,-0.0229,-0.0082,-0.0078,-0.0074,0,0,0,0,0,0,0,0,0,0,0,0,0,-0.0443,-0.0442,-0.0384,-0.0383,-0.0382,-0.0296,-0.0294,-0.0293,-0.023,-0.023,-0.023,-0.0229,-0.0083,-0.0078,-0.0074,0,0,0,0,0,0,0,0,0,0,0,0,0,-0.039,-0.0442,-0.0384,-0.0342,-0.0337,-0.0296,-0.0294,-0.0292,-0.023,-0.023,-0.0229,-0.0229,-0.0084,-0.0079,-0.0074,-0.005,0,0,-0.0057,-0.0055,0,0,0,0,0,0,0,0,-0.0393,-0.0388,-0.0349,-0.0345,-0.034,-0.0275,-0.0261,-0.0209,-0.0231,-0.0269,-0.0229,-0.0229,-0.0142,-0.0132,-0.0115,-0.0043,-0.0037,-0.0056,-0.0053,-0.0051,-0.0049,0,0,0,0,0,0,0,-0.0397,-0.0391,-0.0347,-0.0348,-0.0342,-0.0308,-0.0301,-0.0251,-0.0207,-0.0266,-0.0261,-0.0255,-0.0139,-0.012,-0.0111,-0.0034,-0.0057,-0.0052,-0.0048,-0.0046,0.0083,0.0083,0,0,0,0,0,0,-0.0415,-0.0395,-0.035,-0.0344,-0.0368,-0.0308,-0.0299,-0.0295,-0.0209,-0.0196,-0.0255,-0.0252,-0.013,-0.0117,-0.0105,-0.007,-0.0051,-0.0046,-0.0043,0.0083,0.0083,0.0084,0,0,0,0,0,0,-0.0417,-0.0412,-0.0353,-0.0369,-0.0359,-0.0308,-0.0303,-0.0293,-0.0275,-0.0202,-0.0187,-0.0248,-0.0129,-0.0113,-0.0065,-0.0063,-0.0043,-0.0038,0.0083,0.0083,0.0083,0.0,0,0,0,0,0,0,-0.0419,-0.0414,-0.0418,-0.037,-0.0359,-0.0339,-0.0303,-0.0292,-0.0273,-0.0268,-0.0191,-0.0176,-0.0127,-0.0073,-0.0059,-0.0056,-0.0034,0.0083,0.0083,0.0083,0.0003,-0.0002,-0.0007,0,0,0,0,0,-0.0422,-0.0433,-0.0419,-0.0413,-0.0367,-0.0339,-0.0331,-0.0291,-0.0273,-0.0271,-0.0217,-0.0179,-0.0061,-0.0069,-0.0052,-0.0047,0.0083,0.0083,0.0083,0.0005,-0.0001,-0.0007,0,0,0,0,0,0,-0.046,-0.0426,-0.041,-0.041,-0.0382,-0.033,-0.0325,-0.0298,-0.0254,-0.0249,-0.0178,-0.016,-0.0118,-0.0071,-0.0081,-0.0008,0.0018,0.0022,-0.0047,-0.0052,-0.0057,-0.0075,-0.003,0,0,0,0,0,-0.0472,-0.0471,-0.0432,-0.0432,-0.0422,-0.0375,-0.036,-0.0334,-0.029,-0.027,-0.0217,-0.0156,-0.0103,-0.0071,-0.002,0.002,0.0071,0.0036,0.0031,0.0027,0.0024,0.0098,0.01,0.0085,0.0085,0.0085,0,0,-0.0487,-0.0469,-0.0468,-0.0441,-0.0414,-0.0408,-0.0364,-0.0349,-0.0337,-0.026,-0.0228,-0.0174,-0.0098,-0.0055,-0.0031,-0.0015,0.0057,0.0027,0.0023,0.0023,0.0099,0.01,0.0102,0.0085,0.0085,0.0085,0,0,-0.052,-0.0501,-0.0513,-0.0495,-0.0467,-0.0436,-0.0437,-0.0391,-0.0364,-0.0329,-0.027,-0.0217,-0.014,-0.0082,-0.0043,-0.0041,0.0024,-0.0025,-0.0056,0.0015,0.0017,0.0019,0.0078,0.0086,-0.0022,-0.0022,-0.0022,0,-0.054,-0.0547,-0.0512,-0.0519,-0.051,-0.0456,-0.0465,-0.043,-0.0373,-0.0348,-0.0331,-0.021,-0.0151,-0.0083,-0.0084,-0.0052,-0.0006,-0.0045,0.0008,0.0011,0.0015,0.0075,0.0085,-0.0026,-0.0025,-0.0025,-0.0024,0,-0.058,-0.0586,-0.0592,-0.0582,-0.0567,-0.0566,-0.0519,-0.0497,-0.0459,-0.0414,-0.0349,-0.0267,-0.0193,-0.0165,-0.0124,-0.0067,-0.0042,-0.0014,0.0016,0.0011,0.0075,0.0087,-0.0031,-0.003,-0.0029,-0.0028,0,0,-0.0621,-0.0623,-0.0624,-0.0633,-0.0601,-0.0594,-0.0574,-0.0534,-0.0515,-0.0449,-0.0411,-0.0319,-0.027,-0.0223,-0.0157,-0.0093,-0.0033,-0.0053,-0.0047,-0.0005,0.0117,0.0138,0.0154,0.0002,0.0003,0.0005,0.0148,0,-0.0662,-0.0701,-0.068,-0.0704,-0.0718,-0.0667,-0.0652,-0.0606,-0.0551,-0.05,-0.0401,-0.0339,-0.0292,-0.0255,-0.0187,-0.0073,-0.0005,-0.0075,0.0126,0.0132,0.0143,0.0167,0.013,0.0255,0.016,0.0162,0.0164,0,-0.0705,-0.0726,-0.0767,-0.0769,-0.0768,-0.077,-0.0733,-0.071,-0.0621,-0.0576,-0.0495,-0.0413,-0.031,-0.0269,-0.0081,-0.0131,-0.0018,0.0073,0.0082,0.0139,0.0176,0.0249,0.0281,0.0184,0.0183,0.0181,0.018,0,-0.0757,-0.0781,-0.0819,-0.0821,-0.0814,-0.0816,-0.0802,-0.0735,-0.0712,-0.0617,-0.0584,-0.0452,-0.0376,-0.0231,-0.0052,-0.0063,0.0159,0.0175,0.0305,0.0308,0.0336,0.0338,0.0318,0.0317,0.0317,0.0317,0.0316,0,-0.0808,-0.0835,-0.0851,-0.0872,-0.0908,-0.0875,-0.0883,-0.0845,-0.0782,-0.0751,-0.0629,-0.0566,-0.0361,-0.021,-0.0059,0.0156,0.016,0.0307,0.0352,0.0305,0.0303,0.0289,0.0283,0.0322,0.0321,0.032,0.0319,0,-0.0856,-0.0867,-0.0913,-0.0929,-0.0937,-0.0961,-0.0954,-0.095,-0.0883,-0.0838,-0.0809,-0.0636,-0.0437,-0.0226,0.0032,0.0155,0.0354,0.0435,0.0358,0.0391,0.0455,0.0443,0.0589,0.0591,0.0592,0.0594,0.0595,0,-0.0883,-0.0915,-0.0965,-0.1001,-0.1013,-0.1041,-0.1057,-0.101,-0.0996,-0.0877,-0.0853,-0.065,-0.0493,-0.0119,0.0139,0.0418,0.0426,0.0543,0.0521,0.0456,0.0486,0.0471,0.0458,0.0528,0.0529,0.0529,0.0529,0,-0.0931,-0.0951,-0.0991,-0.1071,-0.111,-0.1144,-0.1156,-0.1162,-0.1091,-0.1028,-0.0898,-0.076,-0.0397,-0.0093,0.0263,0.042,0.0487,0.0562,0.0543,0.0453,0.0408,0.0433,0.0421,0.0534,0.0533,0.0533,0.0533,0.0532,-0.0957,-0.1005,-0.1063,-0.1134,-0.1186,-0.123,-0.1248,-0.1231,-0.1195,-0.1073,-0.094,-0.0704,-0.0412,0.0097,0.0343,0.0573,0.0572,0.063,0.0626,0.0621,0.0577,0.0536,0.0677,0.0677,0.0678,0.0678,0.0678,0,-0.0986,-0.1044,-0.112,-0.1201,-0.1263,-0.1273,-0.1296,-0.1273,-0.1221,-0.1073,-0.0912,-0.0577,-0.0232,0.0075,0.0439,0.0651,0.0633,0.0685,0.0615,0.061,0.0606,0.0557,0.0655,0.0655,0.0656,0.0656,0,0,-0.1004,-0.1083,-0.1128,-0.124,-0.1297,-0.134,-0.1348,-0.1287,-0.1175,-0.1012,-0.083,-0.0584,-0.0218,0.0032,0.03,0.0489,0.0495,0.0508,0.0505,0.0386,0.0379,0.0553,0.0471,0,0,0,0,0]}],[{"header":{"parameterUnit":"m.s-1","parameterCategory":2,"la1":30.2991,"la2":30.254,"lo1":-89.0895,"lo2":-89.0444,"dy":0.0017,"dx":0.0017,"nx":28,"ny":28,"refTime":"2026-01-03T09:00:00:Z","depth":"4","parameterNumber":2,"parameterNumberName":"U-component_of_CURRENTS"},"data":[0,0,0,0,0,0,0,0,0,0,0,0,0,0,0,0,0,0,0,0,0,0,0,0,0,0,0,0,0,0,0,0,0,0,0,0,0,0,0,0,0,0,0,0,0,0,0,0,0,0,0,0,0,0,0,0,0,0,-0.1869,-0.1869,0,-0.1947,-0.1947,-0.1948,-0.2,-0.2001,-0.2001,-0.2002,-0.2051,-0.2052,-0.2053,0,0,0,0,0,0,0,0,0,0,0,0,0,-0.1767,-0.1768,-0.1868,-0.187,-0.1871,-0.1946,-0.1947,-0.1948,-0.2,-0.2001,-0.2001,-0.2002,-0.2051,-0.2052,-0.2053,0,0,0,0,0,0,0,0,0,0,0,0,0,-0.1823,-0.1769,-0.1868,-0.1907,-0.1911,-0.1946,-0.1947,-0.1949,-0.2,-0.2001,-0.2001,-0.2002,-0.205,-0.2052,-0.2053,-0.2046,0,0,-0.2057,-0.2057,0,0,0,0,0,0,0,0,-0.182,-0.1827,-0.19,-0.1904,-0.1909,-0.1966,-0.193,-0.198,-0.2,-0.1964,-0.2002,-0.2003,-0.202,-0.2024,-0.2035,-0.2048,-0.205,-0.2057,-0.2058,-0.2058,-0.2058,0,0,0,0,0,0,0,-0.1816,-0.1824,-0.1898,-0.1901,-0.1907,-0.1921,-0.193,-0.194,-0.1985,-0.1968,-0.1972,-0.1983,-0.2022,-0.2034,-0.2037,-0.2051,-0.2057,-0.2058,-0.2059,-0.2059,-0.2137,-0.2139,0,0,0,0,0,0,-0.1809,-0.182,-0.1895,-0.19,-0.1867,-0.1923,-0.1932,-0.1946,-0.1986,-0.1994,-0.1982,-0.1985,-0.2031,-0.2035,-0.2039,-0.2107,-0.2058,-0.2059,-0.206,-0.2136,-0.2138,-0.2139,0,0,0,0,0,0,-0.1806,-0.1815,-0.1892,-0.1863,-0.1874,-0.1924,-0.1938,-0.1947,-0.1991,-0.1998,-0.2005,-0.2022,-0.2032,-0.2037,-0.2081,-0.2107,-0.206,-0.2061,-0.2135,-0.2137,-0.2138,-0.2197,0,0,0,0,0,0,-0.1803,-0.1813,-0.1834,-0.1862,-0.1876,-0.1933,-0.1938,-0.1948,-0.1995,-0.2001,-0.2033,-0.2037,-0.2033,-0.2079,-0.2082,-0.2108,-0.2062,-0.2133,-0.2136,-0.2138,-0.2193,-0.2201,-0.2207,0,0,0,0,0,-0.1799,-0.1818,-0.1835,-0.1845,-0.1898,-0.1934,-0.1943,-0.1978,-0.1997,-0.202,-0.2049,-0.2037,-0.2096,-0.2081,-0.2085,-0.2111,-0.2132,-0.2135,-0.2138,-0.219,-0.2199,-0.2207,0,0,0,0,0,0,-0.1785,-0.1826,-0.1845,-0.1877,-0.1914,-0.1944,-0.1972,-0.1997,-0.2038,-0.2053,-0.2058,-0.2064,-0.2111,-0.2104,-0.2087,-0.2141,-0.2111,-0.2114,-0.2149,-0.2158,-0.2164,-0.2153,-0.2063,0,0,0,0,0,-0.1791,-0.1818,-0.1857,-0.1886,-0.1907,-0.1946,-0.1972,-0.1999,-0.2032,-0.2054,-0.2079,-0.2101,-0.212,-0.2135,-0.2151,-0.2181,-0.2154,-0.2199,-0.2206,-0.2212,-0.2205,-0.2197,-0.2202,-0.2149,-0.2149,-0.2149,0,0,-0.1794,-0.182,-0.1837,-0.1886,-0.1917,-0.1953,-0.1964,-0.2013,-0.2048,-0.205,-0.2114,-0.2132,-0.2135,-0.2173,-0.2192,-0.2174,-0.2213,-0.2215,-0.222,-0.221,-0.2201,-0.2206,-0.221,-0.2151,-0.2151,-0.215,0,0,-0.1801,-0.1838,-0.1862,-0.1897,-0.1952,-0.1977,-0.1999,-0.2052,-0.2086,-0.2142,-0.2152,-0.2188,-0.2224,-0.223,-0.2234,-0.2286,-0.2252,-0.2297,-0.232,-0.2314,-0.2317,-0.232,-0.229,-0.229,-0.2297,-0.2297,-0.2297,0,-0.1806,-0.184,-0.1876,-0.1909,-0.1942,-0.1991,-0.2027,-0.2066,-0.2131,-0.2155,-0.2172,-0.2235,-0.2246,-0.2274,-0.2296,-0.2301,-0.2283,-0.2289,-0.2321,-0.2324,-0.2326,-0.2294,-0.2293,-0.23,-0.23,-0.2299,-0.2299,0,-0.1822,-0.1865,-0.1884,-0.1942,-0.1981,-0.2022,-0.2077,-0.2127,-0.2176,-0.2208,-0.2269,-0.2292,-0.2321,-0.2337,-0.2334,-0.2359,-0.2337,-0.2333,-0.2297,-0.2334,-0.2299,-0.2297,-0.2305,-0.2304,-0.2303,-0.2302,0,0,-0.1793,-0.1879,-0.189,-0.1924,-0.2005,-0.2034,-0.21,-0.216,-0.2198,-0.2266,-0.2304,-0.2355,-0.2372,-0.2378,-0.2386,-0.2386,-0.2392,-0.2371,-0.2369,-0.2334,-0.2362,-0.2213,-0.2196,-0.2396,-0.2397,-0.2397,-0.2329,0,-0.1798,-0.1856,-0.1904,-0.197,-0.2003,-0.2072,-0.2123,-0.2186,-0.2241,-0.2291,-0.2327,-0.2369,-0.2386,-0.2405,-0.2413,-0.2398,-0.239,-0.2409,-0.2336,-0.2333,-0.2191,-0.219,-0.2397,-0.2327,-0.2327,-0.2326,-0.2326,0,-0.1792,-0.1835,-0.1895,-0.198,-0.2003,-0.2052,-0.2136,-0.2191,-0.2265,-0.2306,-0.2357,-0.2385,-0.2413,-0.2416,-0.2409,-0.2422,-0.2395,-0.2379,-0.2376,-0.2211,-0.218,-0.2284,-0.2322,-0.2322,-0.2322,-0.2323,-0.2323,0,-0.1732,-0.1826,-0.1873,-0.1905,-0.2008,-0.2052,-0.2111,-0.2195,-0.2238,-0.2315,-0.2345,-0.2388,-0.2409,-0.2398,-0.2381,-0.2397,-0.2346,-0.2358,-0.2195,-0.2184,-0.2314,-0.2311,-0.2334,-0.2335,-0.2335,-0.2335,-0.2335,0,-0.1698,-0.1741,-0.1854,-0.1878,-0.1937,-0.2024,-0.2088,-0.2153,-0.2232,-0.2259,-0.2348,-0.2358,-0.2408,-0.2394,-0.237,-0.2261,-0.2335,-0.2181,-0.2152,-0.234,-0.2342,-0.2312,-0.231,-0.2332,-0.2333,-0.2333,-0.2334,0,-0.1617,-0.1696,-0.1755,-0.1871,-0.191,-0.1952,-0.2068,-0.2099,-0.2198,-0.2233,-0.2256,-0.2334,-0.2311,-0.2326,-0.2292,-0.2223,-0.2148,-0.2091,-0.2271,-0.2257,-0.1994,-0.1996,-0.1893,-0.1887,-0.1882,-0.1878,-0.1874,0,-0.1577,-0.1601,-0.1729,-0.1762,-0.1819,-0.19,-0.1941,-0.2061,-0.2087,-0.219,-0.2178,-0.2212,-0.2238,-0.2062,-0.2106,-0.2024,-0.201,-0.1954,-0.199,-0.1963,-0.1947,-0.1957,-0.1966,-0.1866,-0.1865,-0.1864,-0.1863,0,-0.1494,-0.1555,-0.1602,-0.1668,-0.1726,-0.1778,-0.1849,-0.1851,-0.1964,-0.2075,-0.2032,-0.2009,-0.1975,-0.1947,-0.1893,-0.1846,-0.1982,-0.1902,-0.1913,-0.1946,-0.193,-0.1921,-0.1936,-0.1845,-0.1848,-0.1849,-0.185,0,-0.1432,-0.1442,-0.1509,-0.1549,-0.1618,-0.1623,-0.1684,-0.1699,-0.174,-0.1857,-0.183,-0.1871,-0.1943,-0.1851,-0.1802,-0.1739,-0.1723,-0.1669,-0.1692,-0.1712,-0.1685,-0.164,-0.1421,0,0,0,0,0,-0.1359,-0.135,-0.138,-0.1413,-0.1473,-0.1508,-0.1599,-0.1661,-0.1768,-0.1682,-0.1751,-0.171,-0.1649,-0.1679,-0.1574,-0.1723,-0.1732,-0.1595,-0.1684,-0.1749,-0.1769,-0.1756,0,0,0,0,0,0,-0.1308,-0.1334,-0.1333,-0.1285,-0.1278,-0.1323,-0.1372,-0.1451,-0.1416,-0.1533,-0.1507,-0.1596,-0.1563,-0.1671,-0.1534,-0.154,-0.1557,-0.1631,-0.1626,-0.1738,-0.1756,-0.1772,-0.1766,0,0,0,0,0]},{"header":{"parameterUnit":"m.s-1","parameterCategory":2,"la1":30.2991,"la2":30.254,"lo1":-89.0895,"lo2":-89.0444,"dy":0.0017,"dx":0.0017,"nx":28,"ny":28,"refTime":"2026-01-03T09:00:00:Z","depth":"4","parameterNumber":3,"parameterNumberName":"V-component_of_CURRENTS"},"data":[0,0,0,0,0,0,0,0,0,0,0,0,0,0,0,0,0,0,0,0,0,0,0,0,0,0,0,0,0,0,0,0,0,0,0,0,0,0,0,0,0,0,0,0,0,0,0,0,0,0,0,0,0,0,0,0,0,0,-0.0264,-0.0263,0,-0.0209,-0.0208,-0.0208,-0.0168,-0.0168,-0.0168,-0.0168,-0.0065,-0.0062,-0.0059,0,0,0,0,0,0,0,0,0,0,0,0,0,-0.029,-0.0289,-0.0264,-0.0263,-0.0263,-0.0209,-0.0208,-0.0207,-0.0168,-0.0168,-0.0168,-0.0168,-0.0065,-0.0062,-0.0059,0,0,0,0,0,0,0,0,0,0,0,0,0,-0.026,-0.0289,-0.0264,-0.0238,-0.0235,-0.0209,-0.0208,-0.0207,-0.0169,-0.0168,-0.0168,-0.0168,-0.0066,-0.0063,-0.0059,-0.004,0,0,-0.0047,-0.0045,0,0,0,0,0,0,0,0,-0.0261,-0.0258,-0.0242,-0.024,-0.0237,-0.0197,-0.018,-0.0149,-0.0169,-0.0192,-0.0168,-0.0168,-0.0105,-0.0098,-0.0087,-0.0035,-0.003,-0.0046,-0.0044,-0.0042,-0.0041,0,0,0,0,0,0,0,-0.0264,-0.026,-0.024,-0.0242,-0.0238,-0.0214,-0.021,-0.0174,-0.0149,-0.019,-0.0187,-0.0184,-0.0103,-0.0091,-0.0084,-0.0029,-0.0047,-0.0043,-0.0041,-0.0039,0.0058,0.0058,0,0,0,0,0,0,-0.0276,-0.0263,-0.0242,-0.0239,-0.025,-0.0214,-0.0209,-0.0208,-0.015,-0.0142,-0.0184,-0.0183,-0.0098,-0.0089,-0.008,-0.0054,-0.0042,-0.0039,-0.0037,0.0057,0.0058,0.0058,0,0,0,0,0,0,-0.0277,-0.0275,-0.0244,-0.0251,-0.0245,-0.0214,-0.0214,-0.0208,-0.0199,-0.0147,-0.0137,-0.0183,-0.0097,-0.0086,-0.0052,-0.0049,-0.0037,-0.0034,0.0057,0.0058,0.0058,-0.0001,0,0,0,0,0,0,-0.0278,-0.0276,-0.0283,-0.0252,-0.0245,-0.0237,-0.0214,-0.0207,-0.0198,-0.0195,-0.0142,-0.0132,-0.0096,-0.0058,-0.0048,-0.0044,-0.003,0.0057,0.0057,0.0058,0.0001,-0.0002,-0.0005,0,0,0,0,0,-0.0279,-0.0291,-0.0283,-0.0281,-0.0255,-0.0238,-0.0233,-0.0208,-0.0198,-0.0199,-0.0161,-0.0134,-0.0048,-0.0055,-0.0044,-0.0038,0.0057,0.0057,0.0058,0.0002,-0.0002,-0.0005,0,0,0,0,0,0,-0.0305,-0.0287,-0.0278,-0.0284,-0.0267,-0.0232,-0.0233,-0.0215,-0.0186,-0.0184,-0.0133,-0.012,-0.009,-0.0055,-0.0065,-0.0007,0.001,0.0013,-0.0036,-0.0039,-0.0043,-0.0057,-0.0027,0,0,0,0,0,-0.0316,-0.032,-0.0296,-0.0301,-0.0296,-0.0266,-0.0257,-0.0241,-0.0212,-0.0199,-0.0162,-0.0118,-0.0078,-0.0054,-0.0017,0.0013,0.005,0.0027,0.0023,0.002,0.0017,0.0075,0.0076,0.006,0.006,0.006,0,0,-0.0328,-0.0319,-0.0321,-0.0307,-0.0292,-0.0289,-0.026,-0.0253,-0.0246,-0.0192,-0.0172,-0.0131,-0.0073,-0.0041,-0.0023,-0.0012,0.0044,0.0021,0.0018,0.0017,0.0075,0.0077,0.0078,0.006,0.006,0.006,0,0,-0.0354,-0.0347,-0.0358,-0.0348,-0.0333,-0.0313,-0.0315,-0.0286,-0.0269,-0.0246,-0.0202,-0.016,-0.0106,-0.0059,-0.0028,-0.0024,0.0021,-0.0013,-0.0035,0.0021,0.0022,0.0024,0.0066,0.0072,-0.001,-0.001,-0.001,0,-0.037,-0.038,-0.0359,-0.0366,-0.0363,-0.0328,-0.0338,-0.0314,-0.0277,-0.026,-0.0249,-0.0158,-0.0112,-0.0057,-0.0056,-0.0031,0.0001,-0.0028,0.0015,0.0018,0.0021,0.0064,0.0072,-0.0012,-0.0012,-0.0012,-0.0012,0,-0.04,-0.0411,-0.0417,-0.0414,-0.0407,-0.0411,-0.0379,-0.0367,-0.0343,-0.0312,-0.0264,-0.0198,-0.0144,-0.0118,-0.0085,-0.0038,-0.0023,-0.0001,0.002,0.0019,0.0064,0.0073,-0.0016,-0.0015,-0.0015,-0.0014,0,0,-0.043,-0.0438,-0.0442,-0.0453,-0.0435,-0.0434,-0.0423,-0.0398,-0.039,-0.034,-0.0316,-0.0238,-0.0202,-0.0164,-0.0111,-0.0057,-0.0009,-0.0027,-0.0023,0.0006,0.0103,0.008,0.0088,0.0018,0.0019,0.0021,0.0123,0,-0.046,-0.0494,-0.0483,-0.0509,-0.0523,-0.0492,-0.0485,-0.0456,-0.042,-0.0388,-0.0306,-0.0264,-0.0218,-0.0192,-0.0133,-0.0043,0.0013,-0.0039,0.0108,0.0112,0.0085,0.0097,0.0025,0.013,0.0132,0.0134,0.0135,0,-0.049,-0.0511,-0.0549,-0.0563,-0.0565,-0.0575,-0.0561,-0.0548,-0.0487,-0.0457,-0.0395,-0.0332,-0.0246,-0.0209,-0.0056,-0.0095,-0.0004,0.007,0.0076,0.0082,0.0106,0.0136,0.0152,0.015,0.0149,0.0148,0.0147,0,-0.0524,-0.0554,-0.059,-0.0596,-0.0604,-0.0615,-0.0614,-0.0573,-0.0564,-0.0498,-0.0479,-0.0371,-0.0315,-0.0193,-0.0048,-0.005,0.012,0.014,0.021,0.021,0.0224,0.0221,0.0255,0.0255,0.0254,0.0254,0.0254,0,-0.0554,-0.0585,-0.0617,-0.0638,-0.0681,-0.0665,-0.069,-0.0668,-0.0632,-0.0618,-0.0522,-0.0479,-0.0308,-0.0191,-0.0061,0.0092,0.0113,0.0207,0.0237,0.0197,0.019,0.023,0.0226,0.0258,0.0257,0.0256,0.0256,0,-0.0579,-0.06,-0.065,-0.0684,-0.0701,-0.0732,-0.0756,-0.0763,-0.0723,-0.0702,-0.0682,-0.0552,-0.0399,-0.0228,-0.0018,0.007,0.0224,0.028,0.0214,0.0238,0.0281,0.0272,0.0361,0.0362,0.0362,0.0362,0.0362,0,-0.0592,-0.0622,-0.0694,-0.0735,-0.0758,-0.0803,-0.083,-0.0814,-0.0812,-0.0742,-0.0726,-0.0582,-0.0478,-0.02,-0.0028,0.0212,0.025,0.0318,0.0309,0.0272,0.0293,0.0284,0.0276,0.0362,0.0362,0.0362,0.0362,0,-0.0615,-0.0649,-0.0691,-0.0781,-0.0834,-0.0883,-0.0914,-0.092,-0.0884,-0.0856,-0.0741,-0.0591,-0.0417,-0.0201,-0.0016,0.0157,0.0261,0.032,0.0321,0.0313,0.0274,0.0292,0.0284,0.0362,0.0362,0.0362,0.0362,0,-0.0631,-0.0674,-0.0741,-0.0813,-0.0888,-0.0935,-0.0951,-0.0931,-0.0917,-0.0829,-0.0793,-0.0597,-0.0477,-0.0229,-0.0061,0.0103,0.0147,0.0191,0.0199,0.0201,0.0119,0.0043,0.0087,0,0,0,0,0,-0.064,-0.0692,-0.0766,-0.0847,-0.0921,-0.0959,-0.0991,-0.0988,-0.0959,-0.0882,-0.0831,-0.0662,-0.0397,-0.0277,-0.0114,-0.0071,0.0158,0.0121,0.0209,0.0364,0.0364,0.0291,0,0,0,0,0,0,-0.065,-0.0723,-0.0763,-0.0856,-0.0912,-0.0983,-0.1004,-0.0986,-0.0926,-0.0873,-0.0721,-0.0639,-0.0372,-0.0485,-0.0113,-0.0065,0.0007,0.0251,0.0254,0.0364,0.0364,0.0364,0.0289,0,0,0,0,0]}]]